Weather reports worldwide

Advertisment
Bridgefoot, United Kingdom (99137): temperature & dewpoint: 10.11.2018 10:00:00 - 16.11.2018 10:00:00 (GMT)Bridgefoot, United Kingdom (99137): precipitation: 10.11.2018 10:00:00 - 16.11.2018 10:00:00 (GMT)
Date & Time tt [°C] td [°C] rr [mm]
16.11.2018 10:00:00 - - -
16.11.2018 09:00:00 - - -
16.11.2018 08:00:00 12,1 11,2 0,0
16.11.2018 07:00:00 - - -
16.11.2018 06:00:00 - - -
16.11.2018 05:00:00 - - -
16.11.2018 04:00:00 - - -
16.11.2018 03:00:00 - - -
16.11.2018 02:00:00 12,3 10,1 0,0
16.11.2018 01:00:00 - - -
16.11.2018 00:00:00 - - -
15.11.2018 23:00:00 - - -
15.11.2018 22:00:00 - - -
15.11.2018 21:00:00 - - -
15.11.2018 20:00:00 12,1 9,2 0,0
15.11.2018 19:00:00 - - -
15.11.2018 18:00:00 - - -
15.11.2018 17:00:00 - - -
15.11.2018 16:00:00 - - -
15.11.2018 15:00:00 - - 0,0
15.11.2018 14:00:00 - - 0,0
15.11.2018 13:00:00 - - 0,0
15.11.2018 12:00:00 - - -
15.11.2018 11:00:00 - - -
15.11.2018 10:00:00 - - -
15.11.2018 09:00:00 - - -
15.11.2018 08:00:00 - - -
15.11.2018 07:00:00 - - -
15.11.2018 06:00:00 - - -
15.11.2018 05:00:00 - - -
15.11.2018 04:00:00 - - -
15.11.2018 03:00:00 - - -
15.11.2018 02:00:00 - - -
15.11.2018 01:00:00 - - -
15.11.2018 00:00:00 - - -
14.11.2018 23:00:00 - - -
14.11.2018 22:00:00 - - -
14.11.2018 21:00:00 - - -
14.11.2018 20:00:00 - - -
14.11.2018 19:00:00 - - -
14.11.2018 18:00:00 - - -
14.11.2018 17:00:00 - - -
14.11.2018 16:00:00 - - -
14.11.2018 15:00:00 - - -
14.11.2018 14:00:00 11,9 10,6 0,0
14.11.2018 13:00:00 11,9 11,1 0,2
14.11.2018 12:00:00 12,1 11,2 1,0
14.11.2018 11:00:00 12,0 11,3 1,6
14.11.2018 10:00:00 12,1 11,2 0,0
14.11.2018 09:00:00 12,0 11,4 1,0
14.11.2018 08:00:00 12,0 11,2 0,2
14.11.2018 07:00:00 11,6 10,9 0,8
14.11.2018 06:00:00 11,2 10,1 1,2
14.11.2018 05:00:00 10,7 9,8 1,8
14.11.2018 04:00:00 10,5 9,2 1,2
14.11.2018 03:00:00 10,2 9,1 0,2
14.11.2018 02:00:00 10,6 8,9 0,0
14.11.2018 01:00:00 11,1 8,4 0,0
14.11.2018 00:00:00 11,2 8,2 0,2
13.11.2018 23:00:00 11,4 8,5 0,0
13.11.2018 22:00:00 11,3 8,3 0,0
13.11.2018 21:00:00 11,3 8,9 0,0
13.11.2018 20:00:00 10,8 8,8 0,0
13.11.2018 19:00:00 11,1 9,2 0,0
13.11.2018 18:00:00 10,8 9,1 0,0
13.11.2018 17:00:00 10,5 8,6 0,0
13.11.2018 16:00:00 10,2 7,7 0,0
13.11.2018 15:00:00 10,7 7,9 0,0
13.11.2018 14:00:00 11,3 8,0 0,0
13.11.2018 13:00:00 10,9 7,1 0,0
13.11.2018 12:00:00 11,0 7,7 0,0
13.11.2018 11:00:00 10,7 7,6 0,0
13.11.2018 10:00:00 9,8 7,3 0,0
13.11.2018 09:00:00 9,9 7,0 0,0
13.11.2018 08:00:00 9,9 7,0 0,0
13.11.2018 07:00:00 9,9 7,0 0,0
13.11.2018 06:00:00 9,9 7,4 0,0
13.11.2018 05:00:00 9,8 7,5 0,0
13.11.2018 04:00:00 9,8 7,6 0,4
13.11.2018 03:00:00 9,4 8,4 0,2
13.11.2018 02:00:00 9,4 7,7 0,4
13.11.2018 01:00:00 9,5 8,6 0,8
13.11.2018 00:00:00 9,2 8,1 0,4
12.11.2018 23:00:00 8,6 7,5 1,8
12.11.2018 22:00:00 9,1 7,7 0,4
12.11.2018 21:00:00 9,3 7,5 0,8
12.11.2018 20:00:00 8,7 6,7 0,0
12.11.2018 19:00:00 9,4 7,9 1,0
12.11.2018 18:00:00 8,3 6,8 2,6
12.11.2018 17:00:00 6,9 5,0 2,2
12.11.2018 16:00:00 9,8 7,6 0,0
12.11.2018 15:00:00 9,3 7,4 0,0
12.11.2018 14:00:00 8,8 8,0 0,8
12.11.2018 13:00:00 8,5 7,4 5,4
12.11.2018 12:00:00 9,1 7,7 0,8
12.11.2018 11:00:00 9,4 7,8 1,2
12.11.2018 10:00:00 10,1 8,1 0,0
12.11.2018 09:00:00 9,9 7,7 0,0
12.11.2018 08:00:00 10,0 7,3 0,0
12.11.2018 07:00:00 9,7 7,8 0,2
12.11.2018 06:00:00 9,4 8,0 0,4
12.11.2018 05:00:00 9,3 7,8 0,0
12.11.2018 04:00:00 9,6 8,3 1,2
12.11.2018 03:00:00 9,8 8,5 2,6
12.11.2018 02:00:00 9,6 8,5 0,8
12.11.2018 01:00:00 9,6 8,2 0,2
12.11.2018 00:00:00 9,4 8,2 2,2
11.11.2018 23:00:00 9,5 7,7 0,0
11.11.2018 22:00:00 9,2 6,9 0,0
11.11.2018 21:00:00 8,3 6,2 2,0
11.11.2018 20:00:00 8,0 6,8 0,2
11.11.2018 19:00:00 7,0 5,9 2,6
11.11.2018 18:00:00 8,5 6,3 0,0
11.11.2018 17:00:00 7,3 5,3 0,0
11.11.2018 16:00:00 8,7 5,8 0,0
11.11.2018 15:00:00 9,1 6,2 0,0
11.11.2018 14:00:00 9,6 7,6 0,0
11.11.2018 13:00:00 9,9 8,1 0,0
11.11.2018 12:00:00 8,5 7,8 0,6
11.11.2018 11:00:00 8,6 7,5 0,6
11.11.2018 10:00:00 9,1 6,7 0,0
11.11.2018 09:00:00 8,5 6,7 0,0
11.11.2018 08:00:00 8,3 5,8 0,0
11.11.2018 07:00:00 7,6 5,7 0,0
11.11.2018 06:00:00 7,9 5,8 0,0
11.11.2018 05:00:00 8,5 6,2 0,0
11.11.2018 04:00:00 8,0 6,1 0,0
11.11.2018 03:00:00 8,1 6,8 0,0
11.11.2018 02:00:00 7,3 6,3 1,2
11.11.2018 01:00:00 8,3 7,0 0,8
11.11.2018 00:00:00 7,5 6,6 0,0
10.11.2018 23:00:00 7,2 6,5 0,0
10.11.2018 22:00:00 7,1 6,6 0,0
10.11.2018 21:00:00 8,2 6,9 0,0
10.11.2018 20:00:00 9,0 7,5 0,2
10.11.2018 19:00:00 8,9 7,6 0,0
10.11.2018 18:00:00 9,1 6,8 0,2
10.11.2018 17:00:00 9,4 8,2 0,6
10.11.2018 16:00:00 7,9 7,4 0,0
10.11.2018 15:00:00 8,3 7,2 0,8
10.11.2018 14:00:00 10,6 7,2 0,0
10.11.2018 13:00:00 10,4 7,3 0,0
10.11.2018 12:00:00 11,1 7,7 0,0
10.11.2018 11:00:00 10,2 7,0 0,0
10.11.2018 10:00:00 9,2 7,7 0,0

tt = temperature
td = dewpoint
rr = precipitation

Next stations